TimeCST,TemperatureF,Dew PointF,Humidity,Sea Level PressureIn,VisibilityMPH,Wind Direction,Wind SpeedMPH,Gust SpeedMPH,PrecipitationIn,Events,Conditions,WindDirDegrees,DateUTC
12:53 AM,33.1,21.0,61,30.27,10.0,Calm,Calm,-,N/A,,Clear,0,2012-12-12 06:53:00
1:53 AM,32.0,21.9,66,30.26,10.0,Calm,Calm,-,N/A,,Clear,0,2012-12-12 07:53:00
2:53 AM,30.0,21.0,69,30.27,10.0,Calm,Calm,-,N/A,,Clear,0,2012-12-12 08:53:00
3:53 AM,28.9,21.9,75,30.28,10.0,Calm,Calm,-,N/A,,Clear,0,2012-12-12 09:53:00
4:53 AM,28.0,21.0,75,30.28,10.0,Calm,Calm,-,N/A,,Clear,0,2012-12-12 10:53:00
5:53 AM,27.0,21.0,78,30.30,10.0,Calm,Calm,-,N/A,,Clear,0,2012-12-12 11:53:00
6:53 AM,27.0,21.0,78,30.32,10.0,Calm,Calm,-,N/A,,Clear,0,2012-12-12 12:53:00
7:53 AM,28.9,21.9,75,30.35,10.0,ENE,3.5,-,N/A,,Clear,70,2012-12-12 13:53:00
8:53 AM,39.0,27.0,62,30.35,10.0,Calm,Calm,-,N/A,,Clear,0,2012-12-12 14:53:00
9:53 AM,46.0,23.0,40,30.36,10.0,SE,6.9,-,N/A,,Clear,130,2012-12-12 15:53:00
10:53 AM,48.0,18.0,30,30.37,10.0,SSE,3.5,-,N/A,,Clear,160,2012-12-12 16:53:00
11:53 AM,50.0,17.1,27,30.35,10.0,Calm,Calm,-,N/A,,Clear,0,2012-12-12 17:53:00
12:53 PM,53.1,16.0,23,30.31,10.0,SSE,6.9,-,N/A,,Clear,160,2012-12-12 18:53:00
1:53 PM,53.1,12.9,20,30.29,10.0,Variable,3.5,-,N/A,,Clear,0,2012-12-12 19:53:00
2:53 PM,55.0,12.0,18,30.28,10.0,SE,3.5,-,N/A,,Clear,130,2012-12-12 20:53:00
3:53 PM,55.0,10.9,17,30.26,10.0,SSE,3.5,-,N/A,,Clear,160,2012-12-12 21:53:00
4:53 PM,51.1,16.0,25,30.27,10.0,SSE,5.8,-,N/A,,Clear,160,2012-12-12 22:53:00
5:53 PM,48.0,18.0,30,30.26,10.0,ESE,6.9,-,N/A,,Clear,120,2012-12-12 23:53:00
6:53 PM,43.0,19.9,40,30.27,10.0,ESE,5.8,-,N/A,,Clear,120,2012-12-13 00:53:00
7:53 PM,44.1,17.1,34,30.29,10.0,SE,4.6,-,N/A,,Clear,130,2012-12-13 01:53:00
8:53 PM,39.0,19.9,46,30.30,10.0,SE,6.9,-,N/A,,Clear,140,2012-12-13 02:53:00
9:53 PM,37.9,19.9,48,30.31,10.0,SSE,5.8,-,N/A,,Clear,150,2012-12-13 03:53:00
10:53 PM,37.0,19.0,48,30.32,10.0,SE,5.8,-,N/A,,Clear,140,2012-12-13 04:53:00
11:53 PM,35.1,21.9,59,30.32,10.0,SSE,6.9,-,N/A,,Clear,150,2012-12-13 05:53:00